Meteo Giornale » Osservazioni meteo Stati Uniti (USA) » Sacramento
ore: 21:53 - Osservazioni Meteo Sacramento
Lat. 38° 42' N Lon. 121° 35' W Alt. 8 metri s.l.m.
16 °C
Nuvoloso
Temp. 24 Ore
14 °C
25 °C
Sud
22.2 Km/h
Dew point 12 °C
Umidità 77 %
Visibilità 10 Km
Il sole sorge alle ore 06:34
Il sole tramonta alle ore 19:38
| Data e Ora | Cielo e Fenomeni | T °C | DP °C | Um. % | Pres. hPa | Vis. km | Vento km/h | |
|---|---|---|---|---|---|---|---|---|
| Oggi h: 21:53 | Nuvoloso | 16 | 12 | 77 | 1010 | 10 | S 22.2 | |
| Oggi h: 20:53 | Nuvoloso | 17 | 12 | 72 | 1010 | 10 | S 24 | |
| Oggi h: 19:53 | Molto Nuvoloso | 18 | 12 | 67 | 1010 | 10 | S 25.9 | |
| Oggi h: 18:53 | Molto Nuvoloso | 21 | 12 | 56 | 1009 | 10 | S 27.8 | |
| Oggi h: 17:53 | Nuvoloso | 24 | 11 | 43 | 1009 | 10 | S 29.6 | |
| Oggi h: 16:53 | Molto Nuvoloso | 25 | 12 | 44 | 1009 | 10 | S 27.8 | |
| Oggi h: 15:53 | Molto Nuvoloso | 24 | 11 | 43 | 1010 | 10 | S/SE 24 | |
| Oggi h: 14:53 | Molto Nuvoloso | 24 | 11 | 43 | 1011 | 10 | S 29.6 | |
| Oggi h: 13:53 | Coperto | 24 | 11 | 43 | 1011 | 10 | S/SO 25.9 | |
| Oggi h: 12:53 | Coperto | 22 | 11 | 49 | 1011 | 10 | S/SO 27.8 | |
| Oggi h: 11:53 | Coperto | 20 | 12 | 59 | 1012 | 10 | S 24 | |
| Oggi h: 10:53 | Coperto | 18 | 11 | 63 | 1012 | 10 | S 24 | |
| Oggi h: 09:53 | Coperto | 17 | 12 | 72 | 1012 | 10 | S 20.3 | |
| Oggi h: 08:53 | Coperto | 15 | 12 | 82 | 1011 | 10 | S/SE 16.7 | |
| Oggi h: 07:53 | Poco Nuvoloso | 14 | 12 | 87 | 1011 | 10 | S 20.3 | |
| Oggi h: 06:53 | Sereno | 14 | 11 | 82 | 1010 | 10 | S 20.3 | |
| Oggi h: 05:53 | Sereno | 14 | 11 | 82 | 1010 | 10 | S 22.2 | |
| Oggi h: 04:53 | Sereno | 15 | 11 | 76 | 1009 | 10 | S/SE 18.5 | |
| Oggi h: 03:53 | Sereno | 16 | 11 | 72 | 1009 | 10 | S/SE 18.5 | |
| Oggi h: 02:53 | Sereno | 16 | 11 | 72 | 1009 | 10 | SE 18.5 | |
| Oggi h: 01:53 | Sereno | 16 | 11 | 72 | 1009 | 10 | S/SE 14.8 | |
| Oggi h: 00:53 | Sereno | 17 | 11 | 67 | 1009 | 10 | SE 18.5 | |
| Ieri h: 23:53 | Sereno | 17 | 12 | 72 | 1009 | 10 | S/SE 13 | |
| Ieri h: 22:53 | Sereno | 18 | 12 | 67 | 1009 | 10 | S 18.5 | |



